{"data":{"norad_id":87426,"intl_designator":"","name":"UNKNOWN","alt_names":[],"object_type":"UNKNOWN","status":"UNKNOWN","operator":null,"country":null,"launch_date":null,"launch_site_code":null,"launch_vehicle":null,"mission":null,"orbit_class":"UNKNOWN","rcs_meters":null,"size_class":null,"mass_kg":null,"dimensions":null,"purposes":[],"wikipedia_slug":null,"has_3d_model":false,"image_url":null,"decayed_at":null,"tle_current":{"epoch":"2026-09-18T02:47:07.236672Z","epoch_age_seconds":220715,"freshness":"STALE","line1":"1 87426U          26261.11605598  .00002241  00000+0  85497-3 0  9993","line2":"2 87426  65.7824 295.4574 0056055 160.2613 232.9786 14.31903938662560","mean_motion":14.31903938,"eccentricity":0.0056055,"inclination_deg":65.7824,"raan_deg":295.4574,"arg_perigee_deg":160.2613,"mean_anomaly_deg":232.9786,"bstar":0.00085497,"rev_number":66256,"period_min":100.56540538685,"perigee_km":745.21872411006,"apogee_km":825.52884350734,"semimajor_km":7163.5107838087,"source":"CELESTRAK","updated_at":"2026-09-20T09:00:32.474542Z"}}}